Location: Beartown
(43.3287°N, 73.7651°W)
Time: 03:47:19
(UTC+00:00)

Daily predictions for brighter satellites

Satellite Brightness Start Highest point End
(mag) Time Altitude Azimuth Time Altitude Azimuth Time Altitude Azimuth
Cosmos 1536 Rocket 4.1 00:01:00 10° N 00:05:11 39° ENE 00:08:22 16° SE
Cosmos 372 Rocket 3.9 00:02:20 10° SSW 00:07:34 86° ESE 00:12:50 10° NNE
FREGAT/IRIS 4.2 00:08:33 17° NE 00:08:33 17° NE 00:09:39 10° NNE
Cosmos 2263 Rocket 3.7 00:04:11 10° SW 00:09:21 39° WNW 00:14:36 10° NNE
Cosmos 1464 Rocket 3.9 00:03:53 10° S 00:09:57 75° E 00:16:09 10° N
Cosmos 1025 Rocket 3.0 00:06:03 10° N 00:10:24 60° E 00:14:45 10° SSE
Cosmos 1844 4.1 00:05:25 10° S 00:10:40 39° ESE 00:15:53 10° NE
USA 186 2.0 00:11:48 30° ESE 00:12:52 44° ENE 00:15:59 10° N
BREEZE-M DEB (TANK) 3.4 00:10:09 10° SW 00:13:12 64° SE 00:22:34 10° ENE
Cosmos 1844 Rocket 2.7 00:10:01 10° S 00:15:24 53° ESE 00:20:50 10° NNE
Cosmos 1867 3.8 00:10:31 10° NW 00:15:59 73° WSW 00:21:02 12° SSE
Cosmos 1626 4.4 00:17:18 10° NE 00:17:55 12° NE 00:17:55 12° NE
ISS -2.8 00:17:21 10° WSW 00:20:37 47° NNW 00:22:47 19° NE
Cosmos 2151 Rocket 3.5 00:18:18 10° S 00:22:43 71° E 00:27:12 10° NNE
USA 234 3.7 00:17:11 10° ENE 00:23:03 36° SE 00:28:59 10° SSW
Lacrosse 5 rocket 4.0 00:24:12 10° NW 00:26:38 14° N 00:29:06 10° NNE
Cosmos 2150 Rocket 4.0 00:21:53 10° SSW 00:27:14 80° ESE 00:32:43 10° NNE
MetOp-A 4.2 00:26:18 23° SE 00:29:27 54° ENE 00:34:41 10° N
Cosmos 1125 Rocket 3.5 00:26:23 10° S 00:31:34 58° ESE 00:36:48 10° NNE
MOS 1 4.3 00:27:57 19° SSE 00:32:02 64° ENE 00:37:41 10° N
CZ-2C R/B 2.7 00:29:54 10° SW 00:32:31 19° S 00:32:43 19° S
DMSP B5D2-2 4.1 00:31:02 10° NNE 00:36:16 59° E 00:41:28 10° S
NOSS 3-2 (C) 4.2 00:30:38 10° NNW 00:38:04 60° NE 00:42:21 30° ESE
Cosmos 1833 Rocket 4.3 00:35:34 10° N 00:39:28 19° NE 00:40:10 18° ENE
Exosat Rocket 3.5 00:33:54 10° S 00:39:34 61° ESE 00:44:29 10° NNE
NOSS 3-4 (A) 3.8 00:35:56 10° S 00:41:15 37° ESE 00:42:16 34° E
NOSS 3-4 (C) 3.8 00:36:04 10° S 00:41:21 36° ESE 00:41:56 36° ESE
Cosmos 1674 2.5 00:50:01 10° N 00:53:52 89° ENE 00:54:01 83° SSE
Meteor 1-15 Rocket 4.2 00:48:51 10° S 00:54:28 89° W 01:00:13 10° N
Cosmos 1805 3.4 00:57:53 61° NNE 00:57:53 61° NNE 01:01:11 10° N
Abrixas rocket 4.0 00:55:33 10° WNW 00:57:14 25° NNW 00:57:14 25° NNW
Resurs 01 Rocket 2.5 00:59:15 36° NE 00:59:15 36° NE 01:02:31 10° N
H-2A R/B 3.8 00:54:49 10° SSW 00:59:05 29° W 01:03:28 10° NW
Cosmos 1048 Rocket 4.3 00:55:18 10° NNW 01:00:35 66° WSW 01:03:09 31° S
Nadezhda 4 Rocket 4.3 00:55:55 10° NNW 01:01:59 66° W 01:07:55 11° S
ATLAS 2AS CENTAUR R/B 3.0 00:56:10 10° SSW 01:03:48 55° ESE 01:11:28 10° NE
BREEZE-M TANK 2.8 00:56:13 10° WSW 01:04:37 83° NNW 01:05:15 63° ENE
CENTAUR R/B 3.1 01:02:41 10° NW 01:10:52 81° NE 01:14:15 43° SE
ARIANE 5 R/B 4.3 01:17:01 23° NNE 01:17:01 23° NNE 01:18:57 10° N
Cosmos 1269 Rocket 4.1 01:10:22 10° NNW 01:15:25 61° NE 01:15:25 61° NE
Okean 1 Rocket 3.4 01:16:18 48° SW 01:17:22 65° W 01:21:51 10° N
ATLAS 3B R/B 3.4 01:12:42 10° NNW 01:19:02 38° NE 01:20:03 36° ENE
Ariane Rocket 4.1 01:16:43 19° SSW 01:19:55 41° W 01:24:44 10° NNW
OBJECT-B 3.1 01:23:19 23° NNW 01:23:19 23° NNW 01:24:46 10° NNW
Cosmos 2082 Rocket 3.7 01:19:58 10° N 01:23:32 22° NE 01:23:32 22° NE
Cosmos 494 Rocket 4.3 01:20:51 10° NNW 01:26:03 61° WSW 01:26:49 54° SW
USA 238 DEB 4.2 01:19:23 10° NW 01:26:31 60° WSW 01:29:18 39° S
USA 238 4.2 01:19:29 10° NW 01:26:37 61° WSW 01:29:22 39° S
Meteor 2-5 Rocket 3.8 01:21:10 10° NNW 01:26:50 76° W 01:27:52 60° SSW
Resurs 1-3 4.2 01:32:05 54° WNW 01:32:05 54° WNW 01:35:54 10° NNW
Meteor 1-22 Rocket 4.2 01:32:16 66° SSW 01:33:11 86° W 01:39:15 10° N
CZ-2C R/B 4.0 01:28:10 10° N 01:33:19 40° WNW 01:38:30 10° SW
COSMOS 2406 3.6 01:33:30 10° NNW 01:38:13 54° NNE 01:38:13 54° NNE
Cosmos 1634 Rocket 4.1 01:37:16 36° SSW 01:39:52 70° W 01:46:04 10° N
Meteor 1-24 Rocket 3.8 01:39:06 10° NNW 01:44:32 70° W 01:44:32 70° W
SPOT 3 Rocket 4.0 01:44:55 55° W 01:44:55 55° W 01:49:58 10° NNW
ISS -0.3 01:55:24 10° WNW 01:55:46 12° NW 01:55:46 12° NW
Lacrosse 4 Rocket 4.2 01:59:26 10° N 01:59:57 13° N 01:59:57 13° N
USA 234 3.4 02:04:41 51° NNE 02:06:20 70° NW 02:12:49 10° WSW
Lacrosse 5 rocket 4.1 02:04:21 10° NNW 02:06:10 16° N 02:06:10 16° N
Cosmos 1833 Rocket 3.9 02:18:26 10° NNW 02:21:52 39° NNW 02:21:52 39° NNW
Resurs 01 Rocket 4.3 02:36:49 16° WNW 02:36:49 16° WNW 02:38:17 10° NW
Terra 4.5 02:42:40 15° N 02:42:40 15° N 02:43:27 10° N
ATLAS 2AS CENTAUR R/B 3.9 02:47:30 10° WSW 02:55:03 44° NW 03:02:31 10° NNE
Cosmos 2082 Rocket 4.3 03:03:22 10° NNW 03:05:22 23° NW 03:05:22 23° NW
ATLAS 3B R/B 3.9 03:03:16 10° NW 03:07:18 36° WNW 03:07:18 36° WNW
SL-16 R/B 4.3 06:30:27 23° N 06:30:27 23° N 06:32:38 10° NNW
CZ-2D R/B 4.5 06:21:20 10° NNE 06:22:44 19° NNE 06:22:44 19° NNE
Resurs 1-4 Rocket 4.4 06:27:41 10° NNE 06:29:09 19° NNE 06:29:09 19° NNE
Cosmos 1697 Rocket 4.1 07:06:50 35° NE 07:06:50 35° NE 07:10:07 10° NNE
Cosmos 1980 Rocket 3.6 07:10:59 32° E 07:10:59 32° E 07:14:58 10° NE
USA 234 4.3 07:06:28 10° E 07:12:29 41° NNE 07:17:05 17° NW
Cosmos 2263 Rocket 4.5 07:12:41 10° N 07:16:58 21° NE 07:21:14 10° E
ADEOS II 3.3 07:25:08 10° NNE 07:28:10 36° N 07:28:10 36° N
ARIANE 5 R/B 3.5 07:28:31 10° NNE 07:32:22 42° ENE 07:32:22 42° ENE
CZ-3B R/B 4.1 07:37:59 24° NNE 07:37:59 24° NNE 07:41:11 10° NE
IDEFIX/ARIANE 42P 3.5 07:34:16 10° NNE 07:39:15 44° E 07:39:15 44° E
ASTEX 1 4.4 07:35:20 10° NNE 07:39:48 43° E 07:39:48 43° E
Nadezhda 3 Rocket 4.1 07:41:12 69° NNE 07:41:12 69° NNE 07:46:34 10° N
SJ 16-02 3.5 07:46:54 10° N 07:50:33 25° ENE 07:54:10 10° ESE
Cosmos 44 4.2 07:54:54 43° ENE 07:54:54 43° ENE 07:58:11 10° NE
Cosmos 1238 Rocket 4.3 07:50:09 10° N 07:56:43 63° E 08:00:20 25° SSE
IRS-1C 4.5 07:52:20 10° N 07:56:37 57° N 07:56:37 57° N
H-2A R/B 4.0 07:56:10 10° SE 07:59:58 30° ENE 08:03:51 10° N
Lacrosse 5 2.6 08:06:13 43° NNW 08:06:13 43° NNW 08:10:29 10° NE
CZ-2D R/B 4.2 08:02:31 10° NNW 08:04:04 15° NNW 08:04:04 15° NNW
Cosmos 2278 3.6 08:08:13 74° NW 08:08:13 74° NW 08:13:46 10° NNE
Resurs 1-4 Rocket 4.2 08:08:58 10° NNW 08:10:13 14° NW 08:10:13 14° NW
Cosmos 2369 4.3 08:17:21 43° NW 08:17:21 43° NW 08:22:26 10° NNE
X-37B 3.0 08:18:53 23° E 08:18:53 23° E 08:20:16 10° E
NOSS 3-3 (A) 3.9 08:19:03 56° S 08:20:19 75° ESE 08:26:44 10° NE
NOSS 3-3 (C) 3.9 08:19:13 56° S 08:20:26 75° ESE 08:26:48 10° NE
USA 267 3.4 08:14:22 10° NE 08:20:49 63° NNW 08:22:28 48° W
Cosmos 1339 Rocket 4.4 08:29:39 30° S 08:33:01 89° W 08:39:16 10° N
Spot 4 Rocket 3.9 08:29:20 10° N 08:34:26 66° WNW 08:35:06 59° WSW
ATLAS 2AS CENTAUR R/B 4.3 08:29:09 10° NNW 08:36:02 36° NE 08:42:26 10° ESE
Cosmos 972 4.4 08:36:49 57° W 08:37:02 58° WNW 08:41:51 10° N
SL-8 R/B 3.6 08:39:54 55° WNW 08:40:57 89° SW 08:45:43 10° ESE
ADEOS Rocket 4.0 08:36:16 10° SE 08:42:49 52° ENE 08:48:44 10° N
Cosmos 921 Rocket 2.7 08:43:18 71° W 08:43:25 72° WNW 08:47:37 10° NNE
Cosmos 2360 Rocket 4.2 08:39:19 10° SSE 08:43:54 26° ESE 08:48:30 10° NE
Cosmos 1898 Rocket 4.2 08:38:46 10° NNW 08:43:57 55° ENE 08:49:07 10° SE
MSX 3.7 08:38:36 10° N 08:44:23 73° WNW 08:47:05 33° SSW
CZ-4C R/B 3.0 08:47:18 70° NW 08:47:18 70° NW 08:50:33 10° NNW
Cosmos 1812 2.5 08:46:42 73° SSW 08:47:02 84° W 08:50:55 10° N
Cosmos 1500 3.1 08:43:56 10° NNW 08:47:32 70° WNW 08:47:32 70° WNW
IRIDIUM 104 4.4 08:42:36 10° N 08:47:51 80° E 08:53:03 10° S
Cosmos 1697 Rocket 4.0 08:48:35 23° WNW 08:48:58 23° NW 08:53:26 10° N
USA 305 4.3 08:51:58 24° NW 08:52:56 26° NNW 08:56:33 10° NE
Cosmos 1666 3.4 08:49:35 10° N 08:53:22 55° E 08:57:04 10° SSE
Cosmos 1707 Rocket 4.1 08:49:30 10° S 08:53:44 57° E 08:58:00 10° NNE
Cosmos 1980 Rocket 2.8 08:52:47 34° W 08:53:50 37° WNW 08:59:03 10° N
USA 234 3.1 08:48:39 10° SE 08:55:11 79° SW 09:01:45 10° NW
IRIDIUM 114 4.2 08:51:45 10° N 08:56:59 85° W 09:02:12 10° S
USA 306 4.4 08:56:00 22° NW 08:57:10 25° NNW 09:00:45 10° NE
BREEZE-M DEB (TANK) 3.3 08:55:57 27° SW 09:00:09 66° SSE 09:03:30 10° ENE
Cosmos 2322 Rocket 2.5 08:55:32 13° S 09:00:33 66° ESE 09:06:12 10° NNE
Cosmos 2263 Rocket 2.1 08:55:48 10° NNW 09:01:25 68° WSW 09:07:02 10° SSE
BREEZE-M DEB (TANK) 3.0 09:01:04 44° WNW 09:01:47 55° NNW 09:08:01 10° ENE
USA 32 4.2 08:57:29 10° N 09:02:45 74° E 09:07:59 10° S
IRIDIUM 103 4.2 09:00:55 10° N 09:06:08 70° W 09:11:18 10° S
ADEOS II 4.0 09:07:06 10° NNW 09:09:07 13° NW 09:09:07 13° NW
Cosmos 1937 Rocket 3.8 09:04:23 10° NNW 09:09:31 66° ENE 09:14:36 10° SSE
SL-16 R/B 2.1 09:05:31 18° SSW 09:09:50 86° WNW 09:15:32 10° NNE
Cosmos 2228 Rocket 3.7 09:09:42 33° W 09:10:09 33° WNW 09:14:11 10° N
SL-4 R/B 2.5 09:08:18 29° SW 09:10:34 66° SE 09:15:19 10° ENE
FALCON 9 DEB 3.3 09:10:01 40° SSW 09:11:04 67° SE 09:14:29 10° ENE
Cosmos 1733 Rocket 4.0 09:07:52 10° N 09:12:07 50° ENE 09:16:18 10° SSE
ARIANE 5 R/B 3.8 09:08:25 10° NNW 09:12:12 22° WNW 09:12:41 21° WNW
ADEOS 4.2 09:09:11 10° NNE 09:14:21 58° ESE 09:19:28 10° S
USA 276 4.0 09:13:50 17° NW 09:15:25 24° N 09:18:08 10° ENE
Meteor 1-4 Rocket 2.7 09:16:32 37° WSW 09:17:20 45° WNW 09:20:44 10° N
Cosmos 841 Rocket 4.1 09:12:25 10° S 09:17:30 58° ESE 09:22:40 10° NNE
Cosmos 2173 Rocket 4.3 09:11:23 10° N 09:17:43 71° E 09:24:04 10° SSE
Gbstr 26 Del rocket 4.3 09:09:40 10° WNW 09:17:47 84° SW 09:24:53 10° SE
Cosmos 44 Rocket 4.2 09:13:29 10° S 09:17:58 47° ESE 09:22:36 10° NE
IDEFIX/ARIANE 42P 3.7 09:14:22 10° N 09:18:39 26° WNW 09:20:03 23° W
CZ-2C R/B 2.5 09:13:43 10° N 09:18:50 71° WNW 09:23:59 10° SSW
Cosmos 1869 Rocket 3.9 09:15:07 10° NNW 09:19:11 40° W 09:23:14 10° SSW
Cosmos 2227 4.4 09:15:09 10° NW 09:20:28 44° WSW 09:25:45 10° S
CZ-2C R/B 3.9 09:18:24 10° NNW 09:21:31 25° WNW 09:21:45 24° WNW
Meteor 1-10 Rocket 4.5 09:17:09 14° SSW 09:21:58 51° WNW 09:27:42 10° N
ERBS 3.2 09:22:46 28° WNW 09:23:43 33° NW 09:26:50 10° NNE
Cosmos 1763 Rocket 3.5 09:21:34 14° SSW 09:26:02 62° WNW 09:31:19 10° NNE
Cosmos 1862 Rocket 4.0 09:23:35 10° S 09:27:55 65° E 09:32:15 10° NNE
SJ-6F 4.4 09:24:18 10° NNE 09:28:26 87° ESE 09:32:30 10° SSW
SJ 16-02 2.0 09:25:14 10° NW 09:29:09 32° W 09:33:03 10° SSW
Intercosmos 25 4.5 09:26:42 10° SSE 09:30:47 43° E 09:33:58 10° NNE
PSLV R/B 3.8 09:27:17 10° N 09:31:17 44° WNW 09:34:43 13° SW
Cosmos 1743 4.0 09:28:56 10° N 09:32:35 43° ENE 09:36:13 10° SSE
Cosmos 967 Rocket 4.5 09:27:07 10° SW 09:33:34 82° WNW 09:40:01 10° NNE
CZ-4B R/B 1.1 09:32:04 10° S 09:35:11 78° WSW 09:38:26 10° NNW
H-2A R/B 3.0 09:32:10 10° SSW 09:35:53 27° W 09:39:42 10° NW
DEBRIS 3.2 09:34:58 23° W 09:36:27 44° SSW 09:42:13 10° SE
Cosmos 1570 Rocket 4.1 09:34:28 10° SSW 09:39:47 89° ESE 09:45:11 10° NNE
PKM 3.9 09:37:10 10° NW 09:40:51 85° NE 09:44:55 10° SE
Cosmos 1689 Rocket 3.2 09:41:58 10° SSE 09:44:49 48° ENE 09:47:43 10° N
Cosmos 2016 Rocket 4.1 09:42:20 10° N 09:48:29 81° E 09:54:35 10° S
ERS-2 3.0 09:45:41 10° SSW 09:48:49 27° W 09:52:00 10° NW
Lacrosse 5 3.8 09:46:04 10° WNW 09:49:41 19° NNW 09:53:18 10° NNE
Cosmos 2333 Rocket 3.9 09:45:13 10° S 09:50:25 36° ESE 09:55:39 10° NE
Cosmos 1000 Rocket 4.5 09:45:13 10° SSW 09:51:22 67° W 09:57:31 10° N
Okean 1 3.9 09:48:17 10° S 09:52:16 63° E 09:56:17 10° NNE
CZ-4B R/B 3.7 09:49:08 10° NNE 09:52:41 49° E 09:56:10 10° S
Cosmos 540 Rocket 3.4 09:47:35 10° SSW 09:52:44 70° WNW 09:57:55 10° NNE
Meteor 2-20 4.4 09:47:08 10° S 09:53:16 83° W 09:59:25 10° N
X-37B 0.7 09:51:10 14° W 09:53:46 57° SSW 09:56:53 10° ESE
CZ-4B R/B 4.1 09:50:08 10° NNE 09:54:30 85° WNW 09:58:58 10° SSW
ALOS 2.2 09:54:03 10° N 09:58:42 71° WNW 10:03:20 10° SSW
Cosmos 1484 Rocket 2.9 09:54:57 10° N 09:58:53 60° WNW 10:02:49 10° SSW
COSMO-SKYMED 1 2.9 09:58:21 10° SSE 10:02:40 74° ENE 10:07:01 10° N
USA 267 4.4 09:57:32 10° NE 10:03:05 31° NNW 10:08:39 10° WNW
NOSS 3-4 (A) 3.9 09:56:30 10° NW 10:03:36 76° WSW 10:11:26 10° SSE
NOSS 3-4 (C) 3.9 09:56:36 10° NW 10:03:42 77° WSW 10:11:32 10° SSE
Cosmos 1536 3.7 10:02:52 10° NNW 10:06:21 27° W 10:09:49 10° SSW
Cosmos 1725 Rocket 4.0 10:02:07 10° N 10:08:20 86° W 10:14:30 10° S
Meteor 1-31 Rocket 2.9 10:06:42 10° N 10:10:26 53° WNW 10:14:11 10° SSW
Cosmos 1437 Rocket 2.7 10:10:28 10° SSW 10:14:11 60° WNW 10:17:59 10° N
Cosmos 2100 Rocket 4.5 10:08:46 10° NNW 10:14:39 41° W 10:20:30 10° SSW
Cosmos 1544 3.0 10:11:48 10° N 10:15:24 81° W 10:18:57 10° S
